Location: Westminster
(33.3626°N, 96.4619°W)
Time: 21:43:34
(UTC+00:00)

OAO 3 Rocket - Pass Details

Date: 12 July 2022
Orbit: 627 x 681 km, 35.0° (Epoch: 14 August)

Event Time Altitude Azimuth Distance (km) Brightness Sun altitude
Rises 05:27:14 0° 277° (W) 2,968 6.8 -32.6°
Reaches altitude 10° 05:29:36 10° 279° (W) 2,066 6.0 -32.7°
Enters shadow 05:29:54 12° 279° (W) 1,955 5.9 -32.8°
